| time (UTC) | temp F | wind direction | speed MPH | gust MPH | rain 1hr in | rain 24hr in | rain mn in | humidity % | barometer mb |
| 20260508134201 | 60 | 170 | 2.0 | 2.0 | 0.00 | 0.00 | 0.00 | 42 | 1014.5 |
| 20260508133658 | 60 | 169 | 2.0 | 2.0 | 0.00 | 0.00 | 0.00 | 44 | 1014.3 |
| 20260508133155 | 59 | 197 | 4.0 | 6.0 | 0.00 | 0.00 | 0.00 | 43 | 1014.5 |
| 20260508132653 | 59 | 144 | 2.0 | 3.0 | 0.00 | 0.00 | 0.00 | 44 | 1014.4 |
| 20260508132150 | 59 | 178 | 1.0 | 1.0 | 0.00 | 0.00 | 0.00 | 45 | 1014.3 |
| 20260508131645 | 59 | 102 | 3.0 | 3.0 | 0.00 | 0.00 | 0.00 | 45 | 1014.1 |
| 20260508131142 | 58 | 148 | 0.0 | 0.0 | 0.00 | 0.00 | 0.00 | 45 | 1014.1 |
| 20260508130639 | 57 | 170 | 1.0 | 1.0 | 0.00 | 0.00 | 0.00 | 46 | 1014.1 |
| 20260508130136 | 57 | 186 | 1.0 | 1.0 | 0.00 | 0.00 | 0.00 | 47 | 1014.3 |
| 20260508125631 | 58 | 194 | 3.0 | 3.0 | 0.00 | 0.00 | 0.00 | 46 | 1014.1 |
| 20260508125129 | 57 | 179 | 0.0 | 1.0 | 0.00 | 0.00 | 0.00 | 45 | 1013.8 |
| 20260508124627 | 57 | 191 | 3.0 | 5.0 | 0.00 | 0.00 | 0.00 | 46 | 1013.7 |
| 20260508124124 | 57 | 196 | 2.0 | 3.0 | 0.00 | 0.00 | 0.00 | 46 | 1013.5 |
| 20260508123622 | 57 | 241 | 3.0 | 5.0 | 0.00 | 0.00 | 0.00 | 45 | 1013.6 |
| 20260508123119 | 57 | 161 | 1.0 | 1.0 | 0.00 | 0.00 | 0.00 | 45 | 1014.0 |
| 20260508122615 | 57 | 153 | 1.0 | 1.0 | 0.00 | 0.00 | 0.00 | 46 | 1014.0 |
| 20260508122112 | 57 | 186 | 0.0 | 1.0 | 0.00 | 0.00 | 0.00 | 45 | 1013.5 |
| 20260508121611 | 57 | 165 | 1.0 | 1.0 | 0.00 | 0.00 | 0.00 | 46 | 1013.5 |
| 20260508121108 | 57 | 186 | 1.0 | 1.0 | 0.00 | 0.00 | 0.00 | 46 | 1013.7 |
| 20260508120605 | 57 | 188 | 5.0 | 6.0 | 0.00 | 0.00 | 0.00 | 45 | 1013.6 |
| 20260508120104 | 58 | 83 | 1.0 | 1.0 | 0.00 | 0.00 | 0.00 | 45 | 1013.5 |
| 20260508115601 | 57 | 195 | 2.0 | 2.0 | 0.00 | 0.00 | 0.00 | 46 | 1013.5 |
| 20260508115057 | 57 | 160 | 1.0 | 1.0 | 0.00 | 0.00 | 0.00 | 46 | 1013.4 |
| 20260508114554 | 57 | 169 | 0.0 | 1.0 | 0.00 | 0.00 | 0.00 | 47 | 1013.4 |
| 20260508114050 | 57 | 176 | 1.0 | 1.0 | 0.00 | 0.00 | 0.00 | 46 | 1013.2 |
| 20260508113548 | 58 | 188 | 1.0 | 1.0 | 0.00 | 0.00 | 0.00 | 46 | 1013.4 |
| 20260508113046 | 57 | 184 | 2.0 | 3.0 | 0.00 | 0.00 | 0.00 | 46 | 1013.3 |
| 20260508112542 | 57 | 207 | 1.0 | 2.0 | 0.00 | 0.00 | 0.00 | 46 | 1013.4 |
| 20260508112039 | 58 | 173 | 0.0 | 1.0 | 0.00 | 0.00 | 0.00 | 46 | 1013.3 |
| 20260508111536 | 58 | 177 | 1.0 | 2.0 | 0.00 | 0.00 | 0.00 | 45 | 1013.3 |
| 20260508111033 | 59 | 182 | 0.0 | 1.0 | 0.00 | 0.00 | 0.00 | 44 | 1013.5 |
| 20260508110531 | 59 | 187 | 2.0 | 2.0 | 0.00 | 0.00 | 0.00 | 44 | 1013.1 |
| 20260508110026 | 59 | 177 | 0.0 | 0.0 | 0.00 | 0.00 | 0.00 | 43 | 1013.3 |
| 20260508105521 | 60 | 158 | 0.0 | 1.0 | 0.00 | 0.00 | 0.00 | 43 | 1013.1 |
| 20260508105019 | 59 | 124 | 0.0 | 1.0 | 0.00 | 0.00 | 0.00 | 43 | 1013.1 |
| 20260508104517 | 59 | 172 | 1.0 | 1.0 | 0.00 | 0.00 | 0.00 | 43 | 1013.2 |
| 20260508104013 | 59 | 183 | 0.0 | 0.0 | 0.00 | 0.00 | 0.00 | 44 | 1012.8 |
| 20260508103510 | 59 | 175 | 0.0 | 0.0 | 0.00 | 0.00 | 0.00 | 44 | 1013.2 |
| 20260508103008 | 60 | 185 | 1.0 | 1.0 | 0.00 | 0.00 | 0.00 | 44 | 1013.1 |
| 20260508102505 | 61 | 196 | 2.0 | 2.0 | 0.00 | 0.00 | 0.00 | 42 | 1012.9 |
| 20260508102003 | 61 | 186 | 1.0 | 1.0 | 0.00 | 0.00 | 0.00 | 41 | 1013.1 |
| 20260508101500 | 61 | 189 | 1.0 | 1.0 | 0.00 | 0.00 | 0.00 | 40 | 1013.0 |
| 20260508100956 | 61 | 200 | 1.0 | 1.0 | 0.00 | 0.00 | 0.00 | 40 | 1012.9 |
| 20260508100455 | 61 | 188 | 1.0 | 1.0 | 0.00 | 0.00 | 0.00 | 40 | 1013.1 |
| 20260508095951 | 62 | 189 | 0.0 | 1.0 | 0.00 | 0.00 | 0.00 | 40 | 1013.0 |
| 20260508095449 | 62 | 189 | 1.0 | 2.0 | 0.00 | 0.00 | 0.00 | 40 | 1012.8 |
| 20260508094946 | 62 | 186 | 0.0 | 0.0 | 0.00 | 0.00 | 0.00 | 39 | 1012.9 |
| 20260508094442 | 62 | 178 | 1.0 | 1.0 | 0.00 | 0.00 | 0.00 | 39 | 1013.1 |
| 20260508093939 | 62 | 150 | 0.0 | 1.0 | 0.00 | 0.00 | 0.00 | 39 | 1012.9 |
| 20260508093436 | 62 | 181 | 0.0 | 0.0 | 0.00 | 0.00 | 0.00 | 40 | 1013.0 |
| 20260508092934 | 62 | 176 | 1.0 | 1.0 | 0.00 | 0.00 | 0.00 | 40 | 1013.0 |
| 20260508092432 | 62 | 163 | 2.0 | 2.0 | 0.00 | 0.00 | 0.00 | 39 | 1013.0 |
| 20260508091930 | 63 | 154 | 1.0 | 1.0 | 0.00 | 0.00 | 0.00 | 38 | 1013.1 |
| 20260508091426 | 63 | 160 | 1.0 | 1.0 | 0.00 | 0.00 | 0.00 | 38 | 1013.0 |
| 20260508090924 | 63 | 191 | 2.0 | 3.0 | 0.00 | 0.00 | 0.00 | 38 | 1013.1 |
| 20260508090423 | 63 | 184 | 2.0 | 3.0 | 0.00 | 0.00 | 0.00 | 38 | 1013.0 |
| 20260508085917 | 64 | 183 | 2.0 | 3.0 | 0.00 | 0.00 | 0.00 | 37 | 1013.1 |
| 20260508085415 | 63 | 190 | 1.0 | 2.0 | 0.00 | 0.00 | 0.00 | 38 | 1013.0 |
| 20260508084911 | 63 | 159 | 0.0 | 1.0 | 0.00 | 0.00 | 0.00 | 38 | 1013.0 |
| 20260508084408 | 63 | 174 | 1.0 | 1.0 | 0.00 | 0.00 | 0.00 | 38 | 1013.1 |
| 20260508083906 | 63 | 196 | 1.0 | 1.0 | 0.00 | 0.00 | 0.00 | 38 | 1013.2 |
| 20260508083403 | 63 | 158 | 1.0 | 2.0 | 0.00 | 0.00 | 0.00 | 39 | 1013.4 |
| 20260508082902 | 63 | 183 | 0.0 | 0.0 | 0.00 | 0.00 | 0.00 | 38 | 1013.4 |
| 20260508082400 | 63 | 182 | 0.0 | 1.0 | 0.00 | 0.00 | 0.00 | 38 | 1013.6 |
| 20260508081858 | 64 | 207 | 1.0 | 1.0 | 0.00 | 0.00 | 0.00 | 38 | 1013.4 |
| 20260508081354 | 64 | 182 | 2.0 | 2.0 | 0.00 | 0.00 | 0.00 | 37 | 1013.4 |
| 20260508080851 | 64 | 165 | 1.0 | 1.0 | 0.00 | 0.00 | 0.00 | 37 | 1013.4 |
| 20260508080349 | 63 | 187 | 0.0 | 1.0 | 0.00 | 0.00 | 0.00 | 38 | 1013.4 |
| 20260508075845 | 64 | 181 | 0.0 | 0.0 | 0.00 | 0.00 | 0.00 | 38 | 1013.5 |
| 20260508075343 | 64 | 183 | 0.0 | 1.0 | 0.00 | 0.00 | 0.00 | 38 | 1013.6 |
| 20260508074841 | 64 | 183 | 0.0 | 1.0 | 0.00 | 0.00 | 0.00 | 37 | 1013.8 |
| 20260508074337 | 65 | 183 | 0.0 | 0.0 | 0.00 | 0.00 | 0.00 | 37 | 1013.7 |
| 20260508073834 | 65 | 179 | 0.0 | 1.0 | 0.00 | 0.00 | 0.00 | 35 | 1013.7 |
| 20260508073332 | 65 | 176 | 0.0 | 0.0 | 0.00 | 0.00 | 0.00 | 36 | 1013.8 |
| 20260508072828 | 65 | 184 | 0.0 | 0.0 | 0.00 | 0.00 | 0.00 | 35 | 1013.8 |
| 20260508072325 | 65 | 143 | 0.0 | 0.0 | 0.00 | 0.00 | 0.00 | 35 | 1013.7 |
| 20260508071822 | 64 | 174 | 0.0 | 0.0 | 0.00 | 0.00 | 0.00 | 36 | 1013.8 |
| 20260508071321 | 64 | 190 | 0.0 | 0.0 | 0.00 | 0.00 | 0.00 | 38 | 1014.2 |
| 20260508070818 | 65 | 172 | 0.0 | 0.0 | 0.00 | 0.00 | 0.00 | 37 | 1014.0 |
| 20260508070316 | 65 | 174 | 0.0 | 0.0 | 0.00 | 0.00 | 0.00 | 37 | 1013.7 |
| 20260508065813 | 65 | 174 | 0.0 | 0.0 | 0.00 | 0.00 | 0.00 | 36 | 1013.8 |
| 20260508065311 | 66 | 183 | 0.0 | 0.0 | 0.00 | 0.00 | 0.00 | 36 | 1013.7 |
| 20260508064809 | 66 | 176 | 0.0 | 0.0 | 0.00 | 0.00 | 0.00 | 35 | 1013.7 |
| 20260508064306 | 67 | 174 | 0.0 | 0.0 | 0.00 | 0.00 | 0.00 | 34 | 1013.8 |
| 20260508063804 | 67 | 126 | 2.0 | 2.0 | 0.00 | 0.00 | 0.00 | 34 | 1013.8 |
| 20260508063302 | 67 | 97 | 1.0 | 2.0 | 0.00 | 0.00 | 0.00 | 34 | 1014.0 |
| 20260508062758 | 67 | 60 | 1.0 | 1.0 | 0.00 | 0.00 | 0.00 | 35 | 1014.1 |
| 20260508062256 | 68 | 160 | 1.0 | 1.0 | 0.00 | 0.00 | 0.00 | 33 | 1014.0 |
| 20260508061753 | 68 | 119 | 1.0 | 1.0 | 0.00 | 0.00 | 0.00 | 32 | 1014.0 |
| 20260508061249 | 68 | 187 | 0.0 | 0.0 | 0.00 | 0.00 | 0.00 | 33 | 1013.8 |
| 20260508060746 | 68 | 172 | 1.0 | 1.0 | 0.00 | 0.00 | 0.00 | 32 | 1014.0 |
| 20260508060244 | 68 | 167 | 0.0 | 0.0 | 0.00 | 0.00 | 0.00 | 33 | 1013.7 |
| 20260508055739 | 69 | 194 | 2.0 | 2.0 | 0.00 | 0.00 | 0.00 | 32 | 1014.1 |
| 20260508055237 | 69 | 201 | 3.0 | 3.0 | 0.00 | 0.00 | 0.00 | 32 | 1013.7 |
| 20260508054733 | 70 | 178 | 1.0 | 1.0 | 0.00 | 0.00 | 0.00 | 31 | 1013.7 |
| 20260508054231 | 70 | 135 | 1.0 | 1.0 | 0.00 | 0.00 | 0.00 | 30 | 1013.8 |
| 20260508053728 | 70 | 182 | 0.0 | 0.0 | 0.00 | 0.00 | 0.00 | 30 | 1013.7 |
| 20260508053225 | 70 | 147 | 1.0 | 1.0 | 0.00 | 0.00 | 0.00 | 29 | 1013.8 |
| 20260508052722 | 70 | 179 | 0.0 | 0.0 | 0.00 | 0.00 | 0.00 | 29 | 1013.8 |
| 20260508052219 | 70 | 189 | 0.0 | 0.0 | 0.00 | 0.00 | 0.00 | 29 | 1014.0 |
| 20260508051715 | 71 | 206 | 0.0 | 1.0 | 0.00 | 0.00 | 0.00 | 30 | 1013.8 |
| 20260508051211 | 71 | 167 | 0.0 | 1.0 | 0.00 | 0.00 | 0.00 | 28 | 1013.5 |
| 20260508050708 | 72 | 188 | 2.0 | 2.0 | 0.00 | 0.00 | 0.00 | 28 | 1013.7 |
| 20260508050206 | 72 | 202 | 4.0 | 5.0 | 0.00 | 0.00 | 0.00 | 28 | 1014.0 |
| 20260508045700 | 72 | 179 | 3.0 | 3.0 | 0.00 | 0.00 | 0.00 | 28 | 1014.0 |
| 20260508045159 | 72 | 163 | 1.0 | 1.0 | 0.00 | 0.00 | 0.00 | 28 | 1013.8 |
| 20260508044656 | 72 | 148 | 1.0 | 1.0 | 0.00 | 0.00 | 0.00 | 28 | 1013.8 |
| 20260508044152 | 73 | 184 | 2.0 | 3.0 | 0.00 | 0.00 | 0.00 | 27 | 1013.5 |
| 20260508043648 | 72 | 204 | 5.0 | 6.0 | 0.00 | 0.00 | 0.00 | 27 | 1013.6 |
| 20260508043146 | 72 | 212 | 0.0 | 0.0 | 0.00 | 0.00 | 0.00 | 28 | 1013.7 |
| 20260508042642 | 72 | 166 | 0.0 | 1.0 | 0.00 | 0.00 | 0.00 | 28 | 1013.6 |
| 20260508042140 | 72 | 164 | 0.0 | 1.0 | 0.00 | 0.00 | 0.00 | 28 | 1013.4 |
| 20260508041636 | 73 | 172 | 1.0 | 1.0 | 0.00 | 0.00 | 0.00 | 28 | 1013.4 |
| 20260508041133 | 73 | 187 | 0.0 | 1.0 | 0.00 | 0.00 | 0.00 | 28 | 1013.5 |
| 20260508040629 | 73 | 157 | 1.0 | 1.0 | 0.00 | 0.00 | 0.00 | 27 | 1013.4 |
| 20260508040127 | 73 | 170 | 0.0 | 1.0 | 0.00 | 0.00 | 0.00 | 26 | 1013.1 |
| 20260508035624 | 73 | 165 | 0.0 | 0.0 | 0.00 | 0.00 | 0.00 | 27 | 1013.2 |
| 20260508035121 | 74 | 44 | 1.0 | 1.0 | 0.00 | 0.00 | 0.00 | 28 | 1012.9 |
| 20260508034618 | 74 | 123 | 1.0 | 1.0 | 0.00 | 0.00 | 0.00 | 27 | 1013.1 |
| 20260508034115 | 74 | 201 | 0.0 | 1.0 | 0.00 | 0.00 | 0.00 | 27 | 1012.7 |
| 20260508033613 | 75 | 163 | 1.0 | 1.0 | 0.00 | 0.00 | 0.00 | 26 | 1012.4 |
| 20260508033111 | 76 | 182 | 1.0 | 1.0 | 0.00 | 0.00 | 0.00 | 25 | 1012.5 |
| 20260508032607 | 76 | 204 | 5.0 | 6.0 | 0.00 | 0.00 | 0.00 | 24 | 1012.7 |
| 20260508032105 | 76 | 221 | 5.0 | 6.0 | 0.00 | 0.00 | 0.00 | 24 | 1012.3 |
| 20260508031602 | 76 | 243 | 6.0 | 7.0 | 0.00 | 0.00 | 0.00 | 24 | 1012.2 |
| 20260508031057 | 76 | 221 | 5.0 | 7.0 | 0.00 | 0.00 | 0.00 | 24 | 1012.0 |
| 20260508030554 | 76 | 233 | 4.0 | 5.0 | 0.00 | 0.00 | 0.00 | 25 | 1011.8 |
| 20260508030052 | 77 | 228 | 4.0 | 5.0 | 0.00 | 0.00 | 0.00 | 24 | 1011.9 |
| 20260508025548 | 77 | 249 | 10.0 | 10.0 | 0.00 | 0.00 | 0.00 | 23 | 1011.6 |
| 20260508025045 | 78 | 261 | 11.0 | 13.0 | 0.00 | 0.00 | 0.00 | 23 | 1011.5 |
| 20260508024541 | 78 | 284 | 6.0 | 7.0 | 0.00 | 0.00 | 0.00 | 23 | 1011.5 |
| 20260508024038 | 78 | 227 | 5.0 | 7.0 | 0.00 | 0.00 | 0.00 | 23 | 1011.6 |
| 20260508023534 | 78 | 255 | 15.0 | 17.0 | 0.00 | 0.00 | 0.00 | 22 | 1011.1 |
| 20260508023032 | 78 | 262 | 13.0 | 18.0 | 0.00 | 0.00 | 0.00 | 22 | 1010.9 |
| 20260508022528 | 78 | 219 | 16.0 | 20.0 | 0.00 | 0.00 | 0.00 | 22 | 1011.0 |
| 20260508022025 | 78 | 237 | 11.0 | 13.0 | 0.00 | 0.00 | 0.00 | 23 | 1010.8 |
| 20260508021521 | 79 | 252 | 17.0 | 18.0 | 0.00 | 0.00 | 0.00 | 22 | 1010.5 |
| 20260508021017 | 79 | 277 | 15.0 | 18.0 | 0.00 | 0.00 | 0.00 | 21 | 1010.5 |
| 20260508020515 | 80 | 300 | 12.0 | 15.0 | 0.00 | 0.00 | 0.00 | 20 | 1010.5 |
| 20260508020012 | 83 | 277 | 11.0 | 13.0 | 0.00 | 0.00 | 0.00 | 18 | 1010.3 |
| 20260508015509 | 84 | 287 | 9.0 | 10.0 | 0.00 | 0.00 | 0.00 | 16 | 1010.4 |
| 20260508015006 | 84 | 302 | 6.0 | 8.0 | 0.00 | 0.00 | 0.00 | 16 | 1010.2 |
| 20260508014503 | 84 | 156 | 8.0 | 9.0 | 0.00 | 0.00 | 0.00 | 16 | 1010.2 |
| 20260508013959 | 84 | 355 | 7.0 | 9.0 | 0.00 | 0.00 | 0.00 | 16 | 1010.3 |
| 20260508013455 | 84 | 281 | 4.0 | 5.0 | 0.00 | 0.00 | 0.00 | 18 | 1010.2 |
| 20260508012952 | 84 | 317 | 2.0 | 2.0 | 0.00 | 0.00 | 0.00 | 16 | 1010.2 |
| 20260508012449 | 85 | 4 | 4.0 | 7.0 | 0.00 | 0.00 | 0.00 | 17 | 1010.3 |
| 20260508011947 | 85 | 261 | 4.0 | 5.0 | 0.00 | 0.00 | 0.00 | 17 | 1010.2 |
| 20260508011444 | 85 | 299 | 3.0 | 5.0 | 0.00 | 0.00 | 0.00 | 19 | 1010.1 |
| 20260508010942 | 85 | 205 | 2.0 | 3.0 | 0.00 | 0.00 | 0.00 | 17 | 1009.7 |
| 20260508010439 | 86 | 24 | 3.0 | 3.0 | 0.00 | 0.00 | 0.00 | 16 | 1009.9 |
| 20260508005936 | 86 | 346 | 7.0 | 8.0 | 0.00 | 0.00 | 0.00 | 15 | 1009.7 |
| 20260508005432 | 86 | 85 | 7.0 | 8.0 | 0.00 | 0.00 | 0.00 | 17 | 1009.6 |
| 20260508004929 | 85 | 193 | 2.0 | 2.0 | 0.00 | 0.00 | 0.00 | 19 | 1009.7 |
| 20260508004425 | 85 | 211 | 4.0 | 5.0 | 0.00 | 0.00 | 0.00 | 17 | 1009.6 |
| 20260508003922 | 86 | 309 | 6.0 | 7.0 | 0.00 | 0.00 | 0.00 | 19 | 1009.8 |
| 20260508003419 | 86 | 3 | 3.0 | 3.0 | 0.00 | 0.00 | 0.00 | 18 | 1009.6 |
| 20260508002916 | 85 | 263 | 4.0 | 5.0 | 0.00 | 0.00 | 0.00 | 16 | 1009.6 |
| 20260508002413 | 86 | 263 | 1.0 | 1.0 | 0.00 | 0.00 | 0.00 | 14 | 1009.5 |
| 20260508001908 | 85 | 68 | 1.0 | 1.0 | 0.00 | 0.00 | 0.00 | 14 | 1009.7 |
| 20260508001405 | 84 | 279 | 2.0 | 2.0 | 0.00 | 0.00 | 0.00 | 15 | 1009.5 |
| 20260508000902 | 86 | 302 | 2.0 | 3.0 | 0.00 | 0.00 | 0.00 | 15 | 1009.3 |
| 20260508000358 | 86 | 306 | 1.0 | 2.0 | 0.00 | 0.00 | 0.00 | 19 | 1009.2 |
| 20260507235854 | 87 | 323 | 3.0 | 5.0 | 0.00 | 0.00 | 0.00 | 14 | 1009.5 |
| 20260507235352 | 86 | 248 | 2.0 | 2.0 | 0.00 | 0.00 | 0.00 | 14 | 1009.3 |
| 20260507234849 | 86 | 218 | 1.0 | 1.0 | 0.00 | 0.00 | 0.00 | 14 | 1009.5 |
| 20260507234345 | 87 | 160 | 4.0 | 6.0 | 0.00 | 0.00 | 0.00 | 14 | 1009.4 |
| 20260507233842 | 87 | 127 | 3.0 | 3.0 | 0.00 | 0.00 | 0.00 | 14 | 1009.8 |
| 20260507233339 | 87 | 174 | 3.0 | 3.0 | 0.00 | 0.00 | 0.00 | 15 | 1009.5 |
| 20260507232838 | 86 | 229 | 1.0 | 2.0 | 0.00 | 0.00 | 0.00 | 16 | 1009.6 |
| 20260507232334 | 87 | 78 | 4.0 | 6.0 | 0.00 | 0.00 | 0.00 | 15 | 1009.6 |
| 20260507231831 | 87 | 217 | 1.0 | 1.0 | 0.00 | 0.00 | 0.00 | 14 | 1009.5 |
| 20260507231322 | 87 | 315 | 4.0 | 5.0 | 0.00 | 0.00 | 0.00 | 16 | 1009.6 |
| 20260507230818 | 87 | 12 | 3.0 | 5.0 | 0.00 | 0.00 | 0.00 | 14 | 1009.8 |
| 20260507230316 | 86 | 21 | 1.0 | 2.0 | 0.00 | 0.00 | 0.00 | 14 | 1009.4 |
| 20260507225815 | 87 | 333 | 4.0 | 5.0 | 0.00 | 0.00 | 0.00 | 16 | 1009.6 |
| 20260507225312 | 87 | 340 | 3.0 | 3.0 | 0.00 | 0.00 | 0.00 | 16 | 1009.6 |
| 20260507224808 | 85 | 31 | 3.0 | 3.0 | 0.00 | 0.00 | 0.00 | 16 | 1009.6 |
| 20260507224305 | 86 | 357 | 3.0 | 5.0 | 0.00 | 0.00 | 0.00 | 17 | 1009.7 |
| 20260507223801 | 86 | 351 | 3.0 | 5.0 | 0.00 | 0.00 | 0.00 | 16 | 1009.8 |
| 20260507223257 | 86 | 11 | 5.0 | 6.0 | 0.00 | 0.00 | 0.00 | 15 | 1009.6 |
| 20260507222754 | 87 | 198 | 0.0 | 0.0 | 0.00 | 0.00 | 0.00 | 14 | 1010.1 |
| 20260507222250 | 87 | 194 | 1.0 | 1.0 | 0.00 | 0.00 | 0.00 | 14 | 1009.7 |
| 20260507221748 | 87 | 187 | 1.0 | 2.0 | 0.00 | 0.00 | 0.00 | 14 | 1009.8 |
| 20260507221244 | 87 | 24 | 5.0 | 6.0 | 0.00 | 0.00 | 0.00 | 14 | 1009.9 |
| 20260507220740 | 85 | 357 | 4.0 | 6.0 | 0.00 | 0.00 | 0.00 | 15 | 1009.8 |
| 20260507220239 | 86 | 72 | 4.0 | 5.0 | 0.00 | 0.00 | 0.00 | 14 | 1010.1 |
| 20260507215734 | 86 | 7 | 7.0 | 8.0 | 0.00 | 0.00 | 0.00 | 14 | 1010.2 |
| 20260507215232 | 86 | 304 | 3.0 | 3.0 | 0.00 | 0.00 | 0.00 | 17 | 1010.2 |
| 20260507214729 | 87 | 332 | 2.0 | 3.0 | 0.00 | 0.00 | 0.00 | 15 | 1010.3 |
| 20260507214226 | 85 | 219 | 0.0 | 1.0 | 0.00 | 0.00 | 0.00 | 14 | 1010.4 |
| 20260507213722 | 84 | 263 | 3.0 | 5.0 | 0.00 | 0.00 | 0.00 | 18 | 1010.4 |
| 20260507213219 | 85 | 310 | 6.0 | 8.0 | 0.00 | 0.00 | 0.00 | 19 | 1010.5 |
| 20260507212715 | 84 | 353 | 7.0 | 8.0 | 0.00 | 0.00 | 0.00 | 15 | 1010.4 |
| 20260507212212 | 84 | 21 | 6.0 | 10.0 | 0.00 | 0.00 | 0.00 | 16 | 1010.7 |
| 20260507211709 | 86 | 25 | 4.0 | 5.0 | 0.00 | 0.00 | 0.00 | 15 | 1010.6 |
| 20260507211204 | 86 | 104 | 2.0 | 3.0 | 0.00 | 0.00 | 0.00 | 15 | 1010.8 |
| 20260507210702 | 85 | 78 | 4.0 | 5.0 | 0.00 | 0.00 | 0.00 | 16 | 1010.7 |
| 20260507210159 | 85 | 13 | 4.0 | 5.0 | 0.00 | 0.00 | 0.00 | 15 | 1010.9 |
| 20260507205655 | 84 | 199 | 2.0 | 3.0 | 0.00 | 0.00 | 0.00 | 15 | 1010.8 |
| 20260507205152 | 86 | 3 | 5.0 | 6.0 | 0.00 | 0.00 | 0.00 | 16 | 1010.8 |
| 20260507204648 | 86 | 214 | 2.0 | 3.0 | 0.00 | 0.00 | 0.00 | 15 | 1010.8 |
| 20260507204146 | 87 | 221 | 4.0 | 5.0 | 0.00 | 0.00 | 0.00 | 17 | 1011.1 |
| 20260507203644 | 87 | 221 | 2.0 | 2.0 | 0.00 | 0.00 | 0.00 | 16 | 1010.9 |
| 20260507203141 | 87 | 48 | 1.0 | 2.0 | 0.00 | 0.00 | 0.00 | 14 | 1011.1 |
| 20260507202636 | 87 | 217 | 6.0 | 6.0 | 0.00 | 0.00 | 0.00 | 15 | 1011.2 |
| 20260507202133 | 86 | 33 | 1.0 | 2.0 | 0.00 | 0.00 | 0.00 | 16 | 1011.5 |
| 20260507201628 | 85 | 171 | 2.0 | 3.0 | 0.00 | 0.00 | 0.00 | 16 | 1011.4 |
| 20260507201125 | 84 | 355 | 1.0 | 1.0 | 0.00 | 0.00 | 0.00 | 18 | 1011.4 |
| 20260507200621 | 85 | 192 | 1.0 | 2.0 | 0.00 | 0.00 | 0.00 | 15 | 1011.4 |
| 20260507200117 | 84 | 350 | 3.0 | 5.0 | 0.00 | 0.00 | 0.00 | 16 | 1011.7 |
| 20260507195614 | 84 | 158 | 1.0 | 2.0 | 0.00 | 0.00 | 0.00 | 16 | 1011.5 |
| 20260507195112 | 86 | 62 | 4.0 | 5.0 | 0.00 | 0.00 | 0.00 | 15 | 1011.6 |
| 20260507194608 | 87 | 41 | 6.0 | 9.0 | 0.00 | 0.00 | 0.00 | 16 | 1012.0 |
| 20260507194103 | 85 | 58 | 3.0 | 5.0 | 0.00 | 0.00 | 0.00 | 17 | 1012.0 |
| 20260507193600 | 85 | 35 | 7.0 | 9.0 | 0.00 | 0.00 | 0.00 | 16 | 1011.9 |
| 20260507193058 | 85 | 91 | 4.0 | 6.0 | 0.00 | 0.00 | 0.00 | 16 | 1011.9 |
| 20260507192554 | 84 | 87 | 4.0 | 6.0 | 0.00 | 0.00 | 0.00 | 17 | 1012.0 |
| 20260507192051 | 84 | 4 | 2.0 | 3.0 | 0.00 | 0.00 | 0.00 | 18 | 1012.0 |
| 20260507191546 | 83 | 249 | 1.0 | 1.0 | 0.00 | 0.00 | 0.00 | 17 | 1011.8 |
| 20260507191044 | 82 | 230 | 1.0 | 1.0 | 0.00 | 0.00 | 0.00 | 17 | 1012.0 |
| 20260507190541 | 82 | 307 | 3.0 | 3.0 | 0.00 | 0.00 | 0.00 | 20 | 1012.0 |
| 20260507190039 | 82 | 9 | 3.0 | 5.0 | 0.00 | 0.00 | 0.00 | 21 | 1012.2 |
| 20260507185538 | 83 | 280 | 5.0 | 6.0 | 0.00 | 0.00 | 0.00 | 25 | 1012.3 |
| 20260507185034 | 82 | 10 | 3.0 | 3.0 | 0.00 | 0.00 | 0.00 | 21 | 1012.3 |
| 20260507184532 | 82 | 258 | 2.0 | 2.0 | 0.00 | 0.00 | 0.00 | 21 | 1012.7 |
| 20260507184030 | 83 | 232 | 4.0 | 6.0 | 0.00 | 0.00 | 0.00 | 20 | 1012.3 |
| 20260507183525 | 82 | 331 | 2.0 | 3.0 | 0.00 | 0.00 | 0.00 | 20 | 1012.5 |
| 20260507183023 | 83 | 245 | 1.0 | 1.0 | 0.00 | 0.00 | 0.00 | 19 | 1012.8 |
| 20260507182519 | 82 | 231 | 1.0 | 2.0 | 0.00 | 0.00 | 0.00 | 20 | 1012.8 |
| 20260507182015 | 81 | 353 | 3.0 | 5.0 | 0.00 | 0.00 | 0.00 | 21 | 1012.8 |
| 20260507181512 | 81 | 281 | 3.0 | 3.0 | 0.00 | 0.00 | 0.00 | 22 | 1012.9 |
| 20260507181008 | 81 | 42 | 4.0 | 5.0 | 0.00 | 0.00 | 0.00 | 24 | 1013.0 |
| 20260507180504 | 81 | 3 | 4.0 | 5.0 | 0.00 | 0.00 | 0.00 | 20 | 1013.0 |
| 20260507180001 | 79 | 185 | 0.0 | 1.0 | 0.00 | 0.00 | 0.00 | 21 | 1013.1 |
| 20260507175457 | 80 | 342 | 3.0 | 3.0 | 0.00 | 0.00 | 0.00 | 24 | 1013.2 |
| 20260507174955 | 80 | 321 | 4.0 | 5.0 | 0.00 | 0.00 | 0.00 | 23 | 1013.2 |
| 20260507174452 | 80 | 74 | 0.0 | 0.0 | 0.00 | 0.00 | 0.00 | 21 | 1013.3 |
| 20260507173950 | 80 | 14 | 2.0 | 2.0 | 0.00 | 0.00 | 0.00 | 21 | 1013.4 |
| 20260507173447 | 79 | 289 | 1.0 | 1.0 | 0.00 | 0.00 | 0.00 | 24 | 1013.5 |
| 20260507172943 | 81 | 156 | 1.0 | 1.0 | 0.00 | 0.00 | 0.00 | 24 | 1013.4 |
| 20260507172440 | 79 | 203 | 1.0 | 1.0 | 0.00 | 0.00 | 0.00 | 23 | 1013.8 |
| 20260507171937 | 80 | 133 | 1.0 | 2.0 | 0.00 | 0.00 | 0.00 | 22 | 1013.7 |
| 20260507171432 | 78 | 65 | 1.0 | 1.0 | 0.00 | 0.00 | 0.00 | 23 | 1013.5 |
| 20260507170930 | 77 | 285 | 1.0 | 2.0 | 0.00 | 0.00 | 0.00 | 24 | 1013.7 |
| 20260507170426 | 77 | 301 | 3.0 | 3.0 | 0.00 | 0.00 | 0.00 | 24 | 1013.6 |
| 20260507165923 | 76 | 203 | 1.0 | 1.0 | 0.00 | 0.00 | 0.00 | 24 | 1013.8 |
| 20260507165419 | 77 | 192 | 0.0 | 1.0 | 0.00 | 0.00 | 0.00 | 24 | 1014.1 |
| 20260507164914 | 76 | 275 | 2.0 | 3.0 | 0.00 | 0.00 | 0.00 | 24 | 1013.8 |
| 20260507164412 | 76 | 77 | 1.0 | 2.0 | 0.00 | 0.00 | 0.00 | 24 | 1014.1 |
| 20260507163909 | 76 | 69 | 1.0 | 2.0 | 0.00 | 0.00 | 0.00 | 25 | 1014.1 |
| 20260507163406 | 75 | 0 | 3.0 | 3.0 | 0.00 | 0.00 | 0.00 | 25 | 1014.0 |
| 20260507162903 | 74 | 303 | 2.0 | 2.0 | 0.00 | 0.00 | 0.00 | 28 | 1014.1 |
| 20260507162358 | 74 | 162 | 1.0 | 1.0 | 0.00 | 0.00 | 0.00 | 26 | 1013.8 |
| 20260507161855 | 74 | 29 | 2.0 | 2.0 | 0.00 | 0.00 | 0.00 | 24 | 1014.1 |
| 20260507161351 | 73 | 237 | 2.0 | 2.0 | 0.00 | 0.00 | 0.00 | 26 | 1014.3 |
| 20260507160848 | 74 | 140 | 2.0 | 2.0 | 0.00 | 0.00 | 0.00 | 28 | 1014.5 |
| 20260507160344 | 75 | 197 | 1.0 | 1.0 | 0.00 | 0.00 | 0.00 | 27 | 1014.3 |
| 20260507155840 | 74 | 171 | 1.0 | 1.0 | 0.00 | 0.00 | 0.00 | 27 | 1014.4 |
| 20260507155336 | 73 | 146 | 1.0 | 1.0 | 0.00 | 0.00 | 0.00 | 25 | 1014.3 |
| 20260507154833 | 72 | 108 | 1.0 | 1.0 | 0.00 | 0.00 | 0.00 | 27 | 1014.3 |
| 20260507154331 | 74 | 154 | 0.0 | 1.0 | 0.00 | 0.00 | 0.00 | 26 | 1014.5 |
| 20260507153827 | 72 | 199 | 1.0 | 1.0 | 0.00 | 0.00 | 0.00 | 32 | 1014.3 |
| 20260507153324 | 71 | 49 | 1.0 | 1.0 | 0.00 | 0.00 | 0.00 | 31 | 1014.6 |
| 20260507152821 | 71 | 184 | 1.0 | 1.0 | 0.00 | 0.00 | 0.00 | 31 | 1014.2 |
| 20260507152317 | 71 | 191 | 0.0 | 1.0 | 0.00 | 0.00 | 0.00 | 29 | 1014.3 |
| 20260507151813 | 71 | 54 | 1.0 | 2.0 | 0.00 | 0.00 | 0.00 | 29 | 1014.6 |
| 20260507151309 | 71 | 155 | 1.0 | 1.0 | 0.00 | 0.00 | 0.00 | 28 | 1014.5 |
| 20260507150806 | 71 | 197 | 0.0 | 0.0 | 0.00 | 0.00 | 0.00 | 28 | 1014.6 |
| 20260507150303 | 69 | 156 | 1.0 | 1.0 | 0.00 | 0.00 | 0.00 | 30 | 1014.8 |
| 20260507145759 | 69 | 140 | 1.0 | 2.0 | 0.00 | 0.00 | 0.00 | 30 | 1014.4 |
| 20260507145255 | 68 | 172 | 1.0 | 1.0 | 0.00 | 0.00 | 0.00 | 31 | 1014.5 |
| 20260507144753 | 68 | 131 | 2.0 | 3.0 | 0.00 | 0.00 | 0.00 | 31 | 1014.5 |
| 20260507144250 | 67 | 84 | 2.0 | 2.0 | 0.00 | 0.00 | 0.00 | 33 | 1014.6 |
| 20260507143746 | 66 | 186 | 1.0 | 2.0 | 0.00 | 0.00 | 0.00 | 35 | 1014.6 |
| 20260507143244 | 65 | 143 | 1.0 | 1.0 | 0.00 | 0.00 | 0.00 | 36 | 1014.7 |
| 20260507142740 | 64 | 167 | 0.0 | 1.0 | 0.00 | 0.00 | 0.00 | 37 | 1014.8 |
| 20260507142236 | 63 | 173 | 1.0 | 1.0 | 0.00 | 0.00 | 0.00 | 38 | 1014.7 |
| 20260507141733 | 62 | 155 | 3.0 | 5.0 | 0.00 | 0.00 | 0.00 | 38 | 1014.6 |
| 20260507141230 | 62 | 184 | 3.0 | 5.0 | 0.00 | 0.00 | 0.00 | 38 | 1014.6 |
| 20260507140726 | 62 | 176 | 1.0 | 1.0 | 0.00 | 0.00 | 0.00 | 38 | 1014.7 |
| 20260507140224 | 62 | 155 | 0.0 | 1.0 | 0.00 | 0.00 | 0.00 | 39 | 1014.8 |
| 20260507135720 | 61 | 167 | 0.0 | 0.0 | 0.00 | 0.00 | 0.00 | 39 | 1014.8 |
| 20260507135218 | 60 | 168 | 1.0 | 1.0 | 0.00 | 0.00 | 0.00 | 40 | 1014.5 |
| 20260507134714 | 60 | 139 | 1.0 | 1.0 | 0.00 | 0.00 | 0.00 | 40 | 1014.7 |